| time (UTC) | temp F | wind direction | speed MPH | gust MPH | rain 1hr in | rain 24hr in | rain mn in | humidity % | barometer mb |
| 20260509000047 | 76 | 243 | 6.0 | 12.0 | 0.00 | 0.00 | 0.00 | 30 | 1016.7 |
| 20260508234546 | 76 | 212 | 8.0 | 16.0 | 0.00 | 0.00 | 0.00 | 29 | 1016.7 |
| 20260508233045 | 76 | 156 | 6.0 | 20.0 | 0.00 | 0.00 | 0.00 | 28 | 1016.6 |
| 20260508231544 | 76 | 220 | 7.0 | 16.0 | 0.00 | 0.00 | 0.00 | 28 | 1016.8 |
| 20260508224541 | 76 | 170 | 7.0 | 17.0 | 0.00 | 0.00 | 0.00 | 28 | 1016.5 |
| 20260508223047 | 76 | 246 | 8.0 | 16.0 | 0.00 | 0.00 | 0.00 | 26 | 1016.7 |
| 20260508221544 | 76 | 226 | 6.0 | 17.0 | 0.00 | 0.00 | 0.00 | 26 | 1016.5 |
| 20260508220044 | 77 | 236 | 7.0 | 12.0 | 0.00 | 0.00 | 0.00 | 24 | 1016.6 |
| 20260508214545 | 79 | 155 | 3.0 | 11.0 | 0.00 | 0.00 | 0.00 | 22 | 1016.5 |
| 20260508213049 | 77 | 220 | 7.0 | 14.0 | 0.00 | 0.00 | 0.00 | 23 | 1016.5 |
| 20260508211544 | 77 | 243 | 5.0 | 12.0 | 0.00 | 0.00 | 0.00 | 22 | 1016.3 |
| 20260508210045 | 77 | 238 | 6.0 | 11.0 | 0.00 | 0.00 | 0.00 | 22 | 1016.3 |
| 20260508204548 | 77 | 213 | 3.0 | 16.0 | 0.00 | 0.00 | 0.00 | 21 | 1016.2 |
| 20260508203042 | 77 | 203 | 4.0 | 11.0 | 0.00 | 0.00 | 0.00 | 19 | 1016.5 |
| 20260508201547 | 75 | 208 | 4.0 | 7.0 | 0.00 | 0.00 | 0.00 | 19 | 1016.5 |
| 20260508200041 | 75 | 250 | 5.0 | 13.0 | 0.00 | 0.00 | 0.00 | 21 | 1016.6 |
| 20260508194610 | 74 | 236 | 4.0 | 16.0 | 0.00 | 0.00 | 0.00 | 22 | 1016.8 |
| 20260508193044 | 73 | 212 | 5.0 | 14.0 | 0.00 | 0.00 | 0.00 | 24 | 1016.6 |
| 20260508191542 | 70 | 182 | 7.0 | 15.0 | 0.00 | 0.00 | 0.00 | 22 | 1016.8 |
| 20260508190043 | 71 | 194 | 4.0 | 11.0 | 0.00 | 0.00 | 0.00 | 23 | 1016.8 |
| 20260508184549 | 68 | 205 | 4.0 | 12.0 | 0.00 | 0.00 | 0.00 | 24 | 1017.1 |
| 20260508183045 | 66 | 269 | 1.0 | 14.0 | 0.00 | 0.00 | 0.00 | 32 | 1017.3 |
| 20260508181606 | 66 | 214 | 5.0 | 11.0 | 0.00 | 0.00 | 0.00 | 33 | 1017.3 |